Weather History for KMKE - October, 2013

Change the Weather History Date:

Saturday, October 12, 2013

  Actual Average Record
Temperature  
Mean Temperature 58 °F 52 °F  
Max Temperature 70 °F 61 °F 83 °F (1995)
Min Temperature 46 °F 44 °F 26 °F (1967)
Degree Days  
Heating Degree Days 7 13  
Month to date heating degree days 53 130  
Since 1 July heating degree days 183 282  
Cooling Degree Days 0 0  
Month to date cooling degree days 10 3  
Year to date cooling degree days 688 637  
Growing Degree Days 14 (Base 50)    
Moisture  
Dew Point 55 °F    
Average Humidity 66    
Maximum Humidity 87    
Minimum Humidity 44    
Precipitation  
Precipitation 0.22 in 0.08 in 0.83 in (1928)
Month to date precipitation 2.32 1.05  
Year to date precipitation 33.99 28.41  
Snow  
Snow 0.00 in 0.00 in 0.20 in (2006)
Month to date snowfall 0.0 0.1  
Since 1 July snowfall 0.0 0.1  
Since 1 September snowfall 0.0 0.1  
Snow Depth 0.00 in    
Sea Level Pressure  
Sea Level Pressure 29.99 in    
Wind  
Wind Speed 9 mph (SSW)    
Max Wind Speed 15 mph    
Max Gust Speed 23 mph    
Visibility 8 miles    
Events Rain , Thunderstorm    
T = Trace of Precipitation, MM = Missing Value Source: NWS Daily Summary

Daily Weather History Graph

Daily Weather History Graph

Search for Another Location

Airport or City:

Trip Planner

Search our weather history database for the weather conditions in past years. The results will help you decide how hot, cold, wet, or windy it might be!

Date:

Astronomy

Oct. 12, 2013 Rise Set
Actual Time 7:01 AM CDT 6:13 PM CDT
Civil Twilight 6:33 AM CDT 6:41 PM CDT
Nautical Twilight 6:00 AM CDT 7:14 PM CDT
Astronomical Twilight 5:27 AM CDT 7:47 PM CDT
Moon 2:31 PM CDT (10/12) No Moon Set
Length of Visible Light 12h 08m
Length of Day
11h 11m
First Quarter, 59% of the Moon is Illuminated
Oct 12
First Quarter
Oct 18
Full
Oct 26
Last Quarter
Nov 3
New
Nov 9
First Quarter

Hourly Weather History & Observations

Time (CDT) Temp. Dew Point Humidity Pressure Visibility Wind Dir Wind Speed Gust Speed Precip Events Conditions
12:52 AM 62.1 °F 52.0 °F 70% 29.97 in 10.0 mi South 6.9 mph - N/A   Partly Cloudy
1:52 AM 62.1 °F 52.0 °F 70% 29.96 in 10.0 mi South 9.2 mph - N/A   Partly Cloudy
2:52 AM 62.1 °F 52.0 °F 70% 29.96 in 10.0 mi South 9.2 mph - N/A   Partly Cloudy
3:52 AM 62.1 °F 52.0 °F 70% 29.96 in 10.0 mi South 9.2 mph - N/A   Partly Cloudy
4:52 AM 61.0 °F 52.0 °F 72% 29.95 in 10.0 mi South 11.5 mph - N/A   Scattered Clouds
5:52 AM 60.1 °F 52.0 °F 75% 29.95 in 10.0 mi South 9.2 mph - N/A   Partly Cloudy
6:52 AM 60.1 °F 53.1 °F 78% 29.95 in 10.0 mi South 11.5 mph - N/A   Scattered Clouds
7:52 AM 61.0 °F 53.1 °F 75% 29.96 in 10.0 mi South 12.7 mph - N/A   Scattered Clouds
8:52 AM 64.0 °F 55.0 °F 73% 29.96 in 10.0 mi South 10.4 mph - N/A   Mostly Cloudy
9:52 AM 66.0 °F 55.9 °F 70% 29.96 in 10.0 mi South 9.2 mph - N/A   Mostly Cloudy
10:52 AM 68.0 °F 57.9 °F 70% 29.97 in 10.0 mi SSW 10.4 mph - 0.00 in Rain Light Rain
11:35 AM 68.0 °F 59.0 °F 73% 29.97 in 10.0 mi SW 12.7 mph 18.4 mph 0.00 in Rain Light Rain
11:52 AM 68.0 °F 59.0 °F 73% 29.97 in 5.0 mi SSW 13.8 mph - 0.00 in Rain Light Rain
12:36 PM 68.0 °F 59.0 °F 73% 29.95 in 10.0 mi SSW 11.5 mph - 0.00 in   Overcast
12:52 PM 68.0 °F 59.0 °F 73% 29.95 in 10.0 mi SSW 13.8 mph - 0.00 in   Overcast
1:09 PM 66.2 °F 59.0 °F 78% 29.96 in 10.0 mi SSW 13.8 mph - N/A   Overcast
1:35 PM 64.4 °F 60.8 °F 88% 29.97 in 4.0 mi SW 9.2 mph - 0.01 in Rain , Thunderstorm Light Thunderstorms and Rain
1:39 PM 64.4 °F 60.8 °F 88% 29.96 in 1.8 mi SSW 5.8 mph - 0.05 in Rain , Thunderstorm Heavy Thunderstorms and Rain
1:52 PM 64.0 °F 61.0 °F 90% 29.96 in 2.0 mi SSW 8.1 mph - 0.17 in Rain , Thunderstorm Thunderstorms and Rain
2:00 PM 62.6 °F 60.8 °F 94% 29.97 in 4.0 mi SSW 9.2 mph - 0.03 in Rain , Thunderstorm Thunderstorms and Rain
2:21 PM 64.4 °F 62.6 °F 94% 29.96 in 5.0 mi SSW 10.4 mph - 0.05 in Rain Light Rain
2:45 PM 64.4 °F 62.6 °F 94% 29.96 in 5.0 mi SSW 10.4 mph - 0.05 in   Overcast
2:52 PM 64.9 °F 62.1 °F 90% 29.95 in 5.0 mi SSW 10.4 mph - 0.05 in   Overcast
2:59 PM 64.4 °F 62.6 °F 94% 29.96 in 5.0 mi SSW 11.5 mph - N/A   Overcast
3:20 PM 64.4 °F 62.6 °F 94% 29.96 in 6.0 mi SSW 12.7 mph - N/A   Overcast
3:52 PM 66.0 °F 62.1 °F 87% 29.97 in 6.0 mi SW 9.2 mph - N/A   Mostly Cloudy
4:13 PM 66.2 °F 62.6 °F 88% 29.97 in 7.0 mi SW 10.4 mph - N/A   Overcast
4:52 PM 66.9 °F 61.0 °F 81% 29.98 in 8.0 mi WSW 9.2 mph 17.3 mph N/A   Scattered Clouds
5:52 PM 66.9 °F 53.1 °F 61% 30.00 in 10.0 mi West 10.4 mph - N/A   Partly Cloudy
6:52 PM 64.0 °F 43.0 °F 46% 30.04 in 10.0 mi West 6.9 mph - N/A   Clear
7:52 PM 61.0 °F 44.1 °F 54% 30.07 in 10.0 mi West 6.9 mph - N/A   Clear
8:52 PM 59.0 °F 42.1 °F 53% 30.10 in 10.0 mi West 5.8 mph - N/A   Clear
9:52 PM 57.0 °F 42.1 °F 57% 30.12 in 10.0 mi West 3.5 mph - N/A   Clear
10:52 PM 57.9 °F 37.0 °F 46% 30.15 in 10.0 mi West 5.8 mph - N/A   Clear
11:52 PM 53.1 °F 37.0 °F 55% 30.16 in 10.0 mi Calm Calm - N/A   Clear